| time (UTC) | temp F | wind direction | speed MPH | gust MPH | rain 1hr in | rain 24hr in | rain mn in | humidity % | barometer mb |
| 20260505101803 | 60 | 58 | 7.0 | 11.0 | 0.00 | 0.00 | 0.00 | 56 | 1017.1 |
| 20260505100903 | 59 | 61 | 7.0 | 9.0 | 0.00 | 0.00 | 0.00 | 56 | 1017.1 |
| 20260505100003 | 59 | 47 | 7.0 | 9.0 | 0.00 | 0.00 | 0.00 | 60 | 1017.3 |
| 20260505095403 | 59 | 11 | 6.0 | 9.0 | 0.00 | 0.00 | 0.00 | 61 | 1017.1 |
| 20260505094503 | 59 | 83 | 5.0 | 8.0 | 0.00 | 0.00 | 0.00 | 65 | 1017.1 |
| 20260505093603 | 57 | 78 | 5.0 | 8.0 | 0.00 | 0.00 | 0.00 | 68 | 1017.0 |
| 20260505092703 | 56 | 5 | 5.0 | 8.0 | 0.00 | 0.00 | 0.00 | 69 | 1017.1 |
| 20260505091803 | 56 | 71 | 6.0 | 8.0 | 0.00 | 0.00 | 0.00 | 70 | 1017.1 |
| 20260505090903 | 54 | 37 | 5.0 | 8.0 | 0.00 | 0.00 | 0.00 | 72 | 1016.9 |
| 20260505090213 | 54 | 38 | 4.0 | 6.0 | 0.00 | 0.00 | 0.00 | 74 | 1017.1 |
| 20260505085403 | 54 | 116 | 5.0 | 10.0 | 0.00 | 0.00 | 0.00 | 74 | 1017.3 |
| 20260505084503 | 54 | 33 | 6.0 | 10.0 | 0.00 | 0.00 | 0.00 | 75 | 1017.3 |
| 20260505083603 | 55 | 349 | 6.0 | 8.0 | 0.00 | 0.00 | 0.00 | 73 | 1017.0 |
| 20260505082703 | 54 | 32 | 6.0 | 9.0 | 0.00 | 0.00 | 0.00 | 76 | 1017.3 |
| 20260505081803 | 54 | 33 | 5.0 | 6.0 | 0.00 | 0.00 | 0.00 | 81 | 1017.3 |
| 20260505080903 | 53 | 25 | 5.0 | 7.0 | 0.00 | 0.00 | 0.00 | 83 | 1017.1 |
| 20260505080004 | 53 | 41 | 5.0 | 7.0 | 0.00 | 0.00 | 0.00 | 83 | 1017.2 |
| 20260505075403 | 53 | 34 | 5.0 | 5.0 | 0.00 | 0.00 | 0.00 | 84 | 1017.4 |
| 20260505074503 | 53 | 357 | 4.0 | 6.0 | 0.00 | 0.00 | 0.00 | 84 | 1017.2 |
| 20260505073603 | 52 | 37 | 4.0 | 6.0 | 0.00 | 0.00 | 0.00 | 86 | 1017.3 |
| 20260505072703 | 52 | 43 | 4.0 | 5.0 | 0.00 | 0.00 | 0.00 | 87 | 1017.3 |
| 20260505071803 | 52 | 11 | 4.0 | 5.0 | 0.00 | 0.00 | 0.00 | 89 | 1017.3 |
| 20260505070903 | 51 | 360 | 3.0 | 4.0 | 0.00 | 0.00 | 0.00 | 90 | 1017.5 |
| 20260505070003 | 51 | 5 | 3.0 | 4.0 | 0.00 | 0.00 | 0.00 | 92 | 1017.5 |
| 20260505065403 | 51 | 10 | 3.0 | 4.0 | 0.00 | 0.00 | 0.00 | 92 | 1017.3 |
| 20260505064713 | 51 | 106 | 3.0 | 4.0 | 0.00 | 0.00 | 0.00 | 94 | 1017.2 |
| 20260505063603 | 50 | 33 | 3.0 | 4.0 | 0.00 | 0.00 | 0.00 | 95 | 1017.3 |
| 20260505062703 | 50 | 45 | 3.0 | 4.0 | 0.00 | 0.00 | 0.00 | 96 | 1017.1 |
| 20260505061803 | 50 | 75 | 3.0 | 4.0 | 0.00 | 0.00 | 0.00 | 96 | 1017.3 |
| 20260505060903 | 49 | 36 | 3.0 | 4.0 | 0.00 | 0.00 | 0.00 | 96 | 1017.1 |
| 20260505060003 | 49 | 63 | 3.0 | 3.0 | 0.00 | 0.00 | 0.00 | 96 | 1017.1 |
| 20260505055403 | 49 | 70 | 2.0 | 3.0 | 0.00 | 0.00 | 0.00 | 96 | 1017.2 |
| 20260505054713 | 49 | 64 | 2.0 | 3.0 | 0.00 | 0.00 | 0.00 | 96 | 1017.1 |
| 20260505053603 | 49 | 20 | 2.0 | 4.0 | 0.00 | 0.00 | 0.00 | 95 | 1016.9 |
| 20260505052703 | 48 | 9 | 1.0 | 2.0 | 0.00 | 0.00 | 0.00 | 95 | 1017.0 |
| 20260505051803 | 48 | 35 | 2.0 | 4.0 | 0.00 | 0.00 | 0.00 | 95 | 1017.0 |
| 20260505050903 | 48 | 45 | 2.0 | 3.0 | 0.00 | 0.00 | 0.00 | 95 | 1016.8 |
| 20260505040903 | 49 | 64 | 1.0 | 2.0 | 0.00 | 0.00 | 0.00 | 93 | 1017.0 |
| 20260505040004 | 49 | 64 | 2.0 | 3.0 | 0.00 | 0.00 | 0.00 | 93 | 1016.9 |
| 20260505035403 | 49 | 51 | 2.0 | 3.0 | 0.00 | 0.00 | 0.00 | 93 | 1017.0 |
| 20260505034503 | 49 | 58 | 2.0 | 3.0 | 0.00 | 0.00 | 0.00 | 93 | 1017.1 |
| 20260505033603 | 49 | 71 | 2.0 | 3.0 | 0.00 | 0.00 | 0.00 | 93 | 1017.0 |
| 20260505032703 | 50 | 72 | 2.0 | 3.0 | 0.00 | 0.00 | 0.00 | 93 | 1017.2 |
| 20260505031803 | 50 | 60 | 2.0 | 3.0 | 0.00 | 0.00 | 0.00 | 93 | 1016.9 |
| 20260505030903 | 50 | 52 | 2.0 | 4.0 | 0.00 | 0.00 | 0.00 | 92 | 1016.8 |
| 20260505030213 | 50 | 66 | 3.0 | 4.0 | 0.00 | 0.00 | 0.00 | 92 | 1017.1 |
| 20260505025403 | 50 | 54 | 2.0 | 3.0 | 0.00 | 0.00 | 0.00 | 92 | 1017.0 |
| 20260505024503 | 51 | 60 | 2.0 | 3.0 | 0.00 | 0.00 | 0.00 | 92 | 1017.2 |
| 20260505023813 | 51 | 51 | 2.0 | 2.0 | 0.00 | 0.00 | 0.00 | 92 | 1016.8 |
| 20260505022703 | 51 | 70 | 1.0 | 2.0 | 0.00 | 0.00 | 0.00 | 92 | 1016.8 |
| 20260505021803 | 51 | 80 | 1.0 | 2.0 | 0.00 | 0.00 | 0.00 | 91 | 1017.3 |
| 20260505020903 | 51 | 52 | 2.0 | 2.0 | 0.00 | 0.00 | 0.00 | 91 | 1017.2 |
| 20260505020003 | 51 | 45 | 2.0 | 2.0 | 0.00 | 0.00 | 0.00 | 91 | 1017.5 |
| 20260505015403 | 52 | 45 | 1.0 | 2.0 | 0.00 | 0.00 | 0.00 | 91 | 1017.3 |
| 20260505014503 | 52 | 54 | 1.0 | 2.0 | 0.00 | 0.00 | 0.00 | 91 | 1017.3 |
| 20260505013813 | 52 | 67 | 1.0 | 2.0 | 0.00 | 0.00 | 0.00 | 91 | 1017.5 |
| 20260505012703 | 52 | 48 | 1.0 | 2.0 | 0.00 | 0.00 | 0.00 | 91 | 1017.5 |
| 20260505011803 | 52 | 67 | 1.0 | 2.0 | 0.00 | 0.00 | 0.00 | 91 | 1017.3 |
| 20260505010903 | 52 | 29 | 1.0 | 2.0 | 0.00 | 0.00 | 0.00 | 91 | 1017.6 |
| 20260505010003 | 52 | 35 | 2.0 | 2.0 | 0.00 | 0.00 | 0.00 | 91 | 1017.5 |
| 20260505005403 | 53 | 63 | 1.0 | 2.0 | 0.00 | 0.00 | 0.00 | 91 | 1017.5 |
| 20260505004503 | 53 | 22 | 2.0 | 3.0 | 0.00 | 0.00 | 0.00 | 92 | 1017.7 |
| 20260505003812 | 53 | 6 | 2.0 | 2.0 | 0.00 | 0.00 | 0.00 | 92 | 1017.7 |
| 20260505002914 | 53 | 315 | 2.0 | 2.0 | 0.00 | 0.00 | 0.00 | 92 | 1017.8 |
| 20260505001803 | 53 | 334 | 1.0 | 3.0 | 0.00 | 0.00 | 0.00 | 92 | 1017.6 |
| 20260505000903 | 53 | 6 | 1.0 | 2.0 | 0.00 | 0.00 | 0.00 | 92 | 1017.8 |
| 20260505000003 | 53 | 54 | 1.0 | 2.0 | 0.00 | 0.00 | 0.00 | 92 | 1018.1 |
| 20260504235613 | 53 | 48 | 1.0 | 2.0 | 0.00 | 0.00 | 0.00 | 92 | 1018.2 |
| 20260504234503 | 53 | 34 | 1.0 | 2.0 | 0.00 | 0.00 | 0.00 | 92 | 1018.1 |
| 20260504233603 | 53 | 66 | 2.0 | 3.0 | 0.00 | 0.00 | 0.00 | 91 | 1018.0 |
| 20260504232703 | 53 | 53 | 2.0 | 3.0 | 0.00 | 0.00 | 0.00 | 91 | 1018.1 |
| 20260504232013 | 53 | 19 | 1.0 | 2.0 | 0.00 | 0.00 | 0.00 | 91 | 1017.8 |
| 20260504230903 | 53 | 140 | 1.0 | 2.0 | 0.00 | 0.00 | 0.00 | 91 | 1018.1 |
| 20260504230004 | 53 | 91 | 1.0 | 2.0 | 0.00 | 0.00 | 0.00 | 91 | 1017.8 |
| 20260504225403 | 53 | 6 | 2.0 | 5.0 | 0.00 | 0.00 | 0.00 | 91 | 1017.5 |
| 20260504224503 | 53 | 327 | 3.0 | 5.0 | 0.00 | 0.00 | 0.00 | 91 | 1017.5 |
| 20260504223603 | 54 | 27 | 2.0 | 3.0 | 0.00 | 0.00 | 0.00 | 90 | 1017.8 |
| 20260504222703 | 54 | 57 | 3.0 | 4.0 | 0.00 | 0.00 | 0.00 | 90 | 1018.0 |
| 20260504221803 | 54 | 61 | 2.0 | 4.0 | 0.00 | 0.00 | 0.00 | 90 | 1017.9 |
| 20260504220903 | 54 | 44 | 2.0 | 3.0 | 0.00 | 0.00 | 0.00 | 90 | 1017.9 |
| 20260504220003 | 55 | 68 | 2.0 | 4.0 | 0.00 | 0.00 | 0.00 | 86 | 1018.0 |
| 20260504215403 | 55 | 50 | 2.0 | 4.0 | 0.00 | 0.00 | 0.00 | 86 | 1018.1 |
| 20260504214503 | 55 | 33 | 2.0 | 3.0 | 0.00 | 0.00 | 0.00 | 86 | 1018.3 |
| 20260504213603 | 55 | 334 | 2.0 | 2.0 | 0.00 | 0.00 | 0.00 | 86 | 1018.1 |
| 20260504212703 | 55 | 59 | 2.0 | 2.0 | 0.00 | 0.00 | 0.00 | 85 | 1018.3 |
| 20260504211803 | 55 | 60 | 1.0 | 2.0 | 0.00 | 0.00 | 0.00 | 85 | 1018.1 |
| 20260504210903 | 55 | 62 | 1.0 | 2.0 | 0.00 | 0.00 | 0.00 | 84 | 1018.4 |
| 20260504210004 | 55 | 45 | 1.0 | 2.0 | 0.00 | 0.00 | 0.00 | 84 | 1018.0 |
| 20260504205403 | 55 | 48 | 2.0 | 2.0 | 0.00 | 0.00 | 0.00 | 84 | 1018.2 |
| 20260504204503 | 55 | 45 | 2.0 | 2.0 | 0.00 | 0.00 | 0.00 | 84 | 1018.3 |
| 20260504203603 | 55 | 25 | 2.0 | 2.0 | 0.00 | 0.00 | 0.00 | 84 | 1018.4 |
| 20260504202703 | 56 | 59 | 2.0 | 2.0 | 0.00 | 0.00 | 0.00 | 83 | 1018.2 |
| 20260504201803 | 56 | 43 | 2.0 | 2.0 | 0.00 | 0.00 | 0.00 | 83 | 1018.3 |
| 20260504200903 | 56 | 45 | 1.0 | 2.0 | 0.00 | 0.00 | 0.00 | 82 | 1018.0 |
| 20260504200003 | 56 | 45 | 1.0 | 2.0 | 0.00 | 0.00 | 0.00 | 82 | 1018.0 |
| 20260504195403 | 56 | 45 | 1.0 | 2.0 | 0.00 | 0.00 | 0.00 | 82 | 1017.9 |
| 20260504194503 | 57 | 71 | 1.0 | 2.0 | 0.00 | 0.00 | 0.00 | 82 | 1017.9 |
| 20260504193812 | 57 | 76 | 2.0 | 3.0 | 0.00 | 0.00 | 0.00 | 81 | 1017.8 |
| 20260504192703 | 57 | 65 | 2.0 | 3.0 | 0.00 | 0.00 | 0.00 | 81 | 1017.7 |
| 20260504191803 | 57 | 53 | 2.0 | 3.0 | 0.00 | 0.00 | 0.00 | 81 | 1017.5 |
| 20260504190903 | 57 | 106 | 2.0 | 2.0 | 0.00 | 0.00 | 0.00 | 81 | 1017.6 |
| 20260504190003 | 57 | 56 | 2.0 | 4.0 | 0.00 | 0.00 | 0.00 | 80 | 1017.6 |
| 20260504185403 | 58 | 58 | 2.0 | 4.0 | 0.00 | 0.00 | 0.00 | 80 | 1017.7 |
| 20260504184504 | 58 | 40 | 3.0 | 4.0 | 0.00 | 0.00 | 0.00 | 80 | 1017.4 |
| 20260504183603 | 58 | 73 | 4.0 | 6.0 | 0.00 | 0.00 | 0.00 | 79 | 1017.5 |
| 20260504182703 | 58 | 52 | 3.0 | 5.0 | 0.00 | 0.00 | 0.00 | 79 | 1017.8 |
| 20260504181803 | 58 | 61 | 4.0 | 6.0 | 0.00 | 0.00 | 0.00 | 78 | 1017.2 |
| 20260504180903 | 58 | 86 | 5.0 | 6.0 | 0.00 | 0.00 | 0.00 | 78 | 1017.4 |
| 20260504180214 | 59 | 64 | 4.0 | 6.0 | 0.00 | 0.00 | 0.00 | 77 | 1017.2 |
| 20260504175403 | 59 | 61 | 4.0 | 7.0 | 0.00 | 0.00 | 0.00 | 77 | 1017.3 |
| 20260504174503 | 59 | 52 | 4.0 | 7.0 | 0.00 | 0.00 | 0.00 | 77 | 1017.4 |
| 20260504173603 | 59 | 79 | 4.0 | 7.0 | 0.00 | 0.00 | 0.00 | 77 | 1017.3 |
| 20260504172703 | 59 | 33 | 4.0 | 4.0 | 0.00 | 0.00 | 0.00 | 76 | 1017.4 |
| 20260504171803 | 59 | 65 | 4.0 | 4.0 | 0.00 | 0.00 | 0.00 | 76 | 1017.2 |
| 20260504170903 | 59 | 3 | 4.0 | 8.0 | 0.00 | 0.00 | 0.00 | 77 | 1017.2 |
| 20260504170213 | 59 | 48 | 4.0 | 4.0 | 0.00 | 0.00 | 0.00 | 78 | 1017.2 |
| 20260504151113 | 67 | 219 | 5.0 | 6.0 | 0.00 | 0.00 | 0.00 | 53 | 1017.1 |
| 20260504140903 | 67 | 205 | 6.0 | 11.0 | 0.00 | 0.00 | 0.00 | 52 | 1017.0 |